[[{"header":{"parameterUnit":"m.s-1","parameterCategory":1,"la1":30.2991,"la2":30.254,"lo1":-89.0895,"lo2":-89.0444,"dy":0.0017,"dx":0.0017,"nx":28,"ny":28,"refTime":"2025-04-07T03:00:00:Z","depth":0,"parameterNumber":2,"parameterNumberName":"U-component_of_WINDS"},"data":[0,0,0,0,0,0,0,0,0,0,0,0,0,0,0,0,0,0,0,0,0,0,0,0,0,0,0,0,0,0,0,0,0,0,0,0,0,0,0,0,0,0,0,0,0,0,0,0,0,0,0,0,0,0,0,0,0,0,4.232,4.2321,0,4.2391,4.2392,4.2393,4.2289,4.2286,4.2282,4.2279,4.2356,4.2361,4.2367,0,0,0,0,0,0,0,0,0,0,0,0,0,4.2102,4.2107,4.232,4.2321,4.2322,4.2391,4.2392,4.2393,4.229,4.2286,4.2281,4.2277,4.2354,4.2361,4.2367,0,0,0,0,0,0,0,0,0,0,0,0,0,4.2187,4.2108,4.232,4.2279,4.2276,4.2391,4.2392,4.2393,4.2291,4.2286,4.228,4.2275,4.2352,4.236,4.2368,4.2528,0,0,4.2393,4.2397,0,0,0,0,0,0,0,0,4.2183,4.2195,4.2284,4.2282,4.2279,4.2326,4.2343,4.2438,4.2292,4.2285,4.2279,4.2272,4.2351,4.2359,4.2384,4.2532,4.2535,4.2394,4.2399,4.2402,4.2405,0,0,0,0,0,0,0,4.2177,4.2192,4.2348,4.2285,4.2282,4.2259,4.2265,4.2361,4.2348,4.2286,4.2278,4.2288,4.2348,4.2376,4.2385,4.2536,4.2394,4.2401,4.2406,4.2409,4.2823,4.2829,0,0,0,0,0,0,4.2175,4.2188,4.2346,4.235,4.2216,4.2267,4.2274,4.2316,4.2347,4.2346,4.2292,4.2283,4.2365,4.2376,4.2388,4.2579,4.2402,4.241,4.2415,4.2817,4.2824,4.2831,0,0,0,0,0,0,4.2171,4.219,4.2343,4.2267,4.2285,4.2277,4.2325,4.232,4.2348,4.2352,4.2349,4.2323,4.2361,4.2376,4.2494,4.258,4.2414,4.2421,4.281,4.2819,4.2827,4.2963,0,0,0,0,0,0,4.2165,4.2189,4.2248,4.2269,4.2289,4.2447,4.233,4.2326,4.2362,4.235,4.238,4.238,4.2358,4.2483,4.2503,4.2589,4.2428,4.2802,4.2814,4.2825,4.2951,4.2975,4.2997,0,0,0,0,0,4.2158,4.2284,4.2252,4.2271,4.2362,4.2452,4.2464,4.2435,4.2369,4.243,4.2433,4.2379,4.2568,4.2496,4.2517,4.2607,4.2796,4.281,4.2824,4.294,4.297,4.2996,0,0,0,0,0,0,4.2273,4.2285,4.225,4.2386,4.2419,4.2434,4.2509,4.2467,4.252,4.2507,4.2471,4.2479,4.2606,4.2618,4.2538,4.2766,4.2671,4.269,4.2753,4.2782,4.2804,4.2799,4.2434,0,0,0,0,0,4.2315,4.2385,4.2392,4.2512,4.253,4.2518,4.2555,4.2531,4.2564,4.2577,4.2588,4.2624,4.2692,4.2737,4.2799,4.2952,4.2959,4.3025,4.3047,4.3066,4.3083,4.3168,4.3199,4.2876,4.2876,4.2875,0,0,4.2401,4.2416,4.2463,4.2536,4.2558,4.2634,4.253,4.2614,4.2671,4.2591,4.2703,4.2713,4.2751,4.2888,4.2949,4.2902,4.3174,4.3084,4.3099,4.3106,4.3186,4.3216,4.3244,4.2885,4.2883,4.2882,0,0,4.2597,4.2615,4.2718,4.2743,4.2778,4.2769,4.2794,4.2817,4.2821,4.2933,4.2876,4.2944,4.306,4.309,4.3121,4.3333,4.3287,4.3354,4.3475,4.3558,4.3584,4.3606,4.3685,4.3713,4.3371,4.3371,4.3372,0,4.27,4.2811,4.2776,4.2865,4.2901,4.2831,4.2937,4.2964,4.3018,4.3045,4.2992,4.3138,4.3159,4.3304,4.3356,4.3382,4.3412,4.3351,4.3583,4.3605,4.3625,4.37,4.3729,4.338,4.3379,4.3378,4.3377,0,4.2937,4.3015,4.3095,4.3149,4.3193,4.329,4.3273,4.3322,4.3295,4.3293,4.3411,4.3433,4.35,4.3532,4.3506,4.3675,4.3645,4.3588,4.3493,4.3665,4.3734,4.3762,4.3391,4.3388,4.3386,4.3384,0,0,4.3208,4.3243,4.3273,4.3298,4.3334,4.3395,4.349,4.3555,4.3599,4.364,4.3721,4.3823,4.3771,4.3806,4.3783,4.3856,4.4027,4.379,4.3791,4.3836,4.4218,4.4262,4.4295,4.3996,4.4001,4.4005,4.4215,0,4.3405,4.3569,4.3542,4.3702,4.3776,4.3712,4.3796,4.3829,4.383,4.3895,4.3896,4.397,4.3895,4.3916,4.3985,4.3991,4.4103,4.3975,4.4074,4.4078,4.4068,4.4331,4.4377,4.4574,4.4242,4.4247,4.425,0,4.3657,4.3708,4.3875,4.3902,4.3932,4.4007,4.4066,4.4128,4.4164,4.4161,4.4202,4.4166,4.4265,4.4168,4.4305,4.4219,4.4258,4.4267,4.4274,4.4283,4.4175,4.4349,4.4636,4.4667,4.4292,4.4288,4.4285,0,4.3841,4.3951,4.4066,4.4089,4.4122,4.4178,4.4195,4.4226,4.4267,4.432,4.4347,4.4411,4.4446,4.4497,4.4481,4.4411,4.4623,4.4524,4.4625,4.4626,4.4674,4.4671,4.4973,4.4696,4.4696,4.4695,4.4694,0,4.4066,4.4172,4.4149,4.422,4.4337,4.4307,4.4425,4.4434,4.4463,4.4537,4.4486,4.4556,4.453,4.46,4.4588,4.4705,4.4721,4.4723,4.4719,4.4729,4.4729,4.4754,4.4741,4.4703,4.4701,4.47,4.4698,0,4.4291,4.428,4.4402,4.4424,4.4432,4.4518,4.4538,4.4606,4.4604,4.4698,4.4719,4.4717,4.4797,4.4786,4.4874,4.4867,4.5014,4.4992,4.5001,4.4997,4.51,4.5091,4.543,4.5474,4.5167,4.517,4.5173,0,4.4436,4.4516,4.4547,4.4593,4.4614,4.4687,4.473,4.4704,4.4751,4.4801,4.4864,4.4939,4.4997,4.5129,4.5137,4.5206,4.5187,4.5301,4.5197,4.5205,4.5191,4.5188,4.5197,4.5322,4.5325,4.5328,4.533,0,4.4696,4.4687,4.475,4.4812,4.4864,4.4912,4.4955,4.4996,4.4974,4.503,4.5111,4.5157,4.5248,4.5325,4.539,4.5409,4.5369,4.5363,4.5391,4.5402,4.5405,4.5407,4.506,4.5356,4.5353,4.5351,4.535,4.5349,4.4887,4.4956,4.499,4.5063,4.5092,4.5134,4.52,4.5207,4.5273,4.5345,4.5326,4.5419,4.5457,4.554,4.5567,4.5641,4.5599,4.5638,4.5649,4.5659,4.5673,4.5392,4.5652,4.5651,4.5651,4.565,4.565,0,4.5146,4.5165,4.5232,4.5294,4.5353,4.5307,4.5353,4.5405,4.5487,4.5525,4.5584,4.5679,4.5754,4.5768,4.584,4.5897,4.588,4.5917,4.5913,4.5919,4.5704,4.5674,4.5929,4.5929,4.5929,4.5929,4.5929,4.5929,4.5288,4.5404,4.54,4.5531,4.5549,4.5639,4.5669,4.5709,4.574,4.5848,4.5909,4.5917,4.5948,4.6021,4.6089,4.6092,4.6122,4.6167,4.6162,4.5962,4.5934,4.5907,4.5879,4.6173,4.6173,4.6371,4.6373,4.6374]},{"header":{"parameterUnit":"m.s-1","parameterCategory":1,"la1":30.2991,"la2":30.254,"lo1":-89.0895,"lo2":-89.0444,"dy":0.0017,"dx":0.0017,"nx":28,"ny":28,"refTime":"2025-04-07T03:00:00:Z","depth":0,"parameterNumber":3,"parameterNumberName":"V-component_of_WINDS"},"data":[0,0,0,0,0,0,0,0,0,0,0,0,0,0,0,0,0,0,0,0,0,0,0,0,0,0,0,0,0,0,0,0,0,0,0,0,0,0,0,0,0,0,0,0,0,0,0,0,0,0,0,0,0,0,0,0,0,0,-2.2763,-2.276,0,-2.2512,-2.2509,-2.2507,-2.2423,-2.2424,-2.2425,-2.2426,-2.2146,-2.2137,-2.2129,0,0,0,0,0,0,0,0,0,0,0,0,0,-2.3146,-2.314,-2.2763,-2.276,-2.2757,-2.2513,-2.2509,-2.2506,-2.2423,-2.2424,-2.2426,-2.2427,-2.2149,-2.2138,-2.2128,0,0,0,0,0,0,0,0,0,0,0,0,0,-2.2946,-2.3138,-2.2763,-2.2687,-2.2677,-2.2514,-2.2509,-2.2505,-2.2423,-2.2424,-2.2426,-2.2428,-2.2152,-2.2139,-2.2127,-2.2014,0,0,-2.2088,-2.2082,0,0,0,0,0,0,0,0,-2.2957,-2.2932,-2.2701,-2.2692,-2.2681,-2.2501,-2.2541,-2.2339,-2.2422,-2.2519,-2.2427,-2.2428,-2.2261,-2.2239,-2.2188,-2.2001,-2.1989,-2.2087,-2.2079,-2.2073,-2.207,0,0,0,0,0,0,0,-2.2971,-2.2942,-2.2663,-2.2698,-2.2685,-2.2657,-2.263,-2.2503,-2.2382,-2.251,-2.2504,-2.2477,-2.2256,-2.22,-2.2181,-2.1985,-2.2087,-2.2076,-2.2068,-2.2063,-2.1689,-2.1687,0,0,0,0,0,0,-2.3001,-2.2954,-2.2671,-2.2656,-2.2827,-2.2649,-2.2619,-2.2557,-2.2384,-2.236,-2.2475,-2.2474,-2.2221,-2.2196,-2.217,-2.2026,-2.2073,-2.2061,-2.2054,-2.1691,-2.1688,-2.1686,0,0,0,0,0,0,-2.301,-2.2977,-2.2681,-2.2803,-2.2763,-2.2641,-2.2571,-2.2551,-2.2496,-2.2358,-2.2334,-2.2443,-2.2222,-2.2188,-2.2055,-2.2015,-2.2056,-2.2044,-2.1694,-2.169,-2.1687,-2.1737,0,0,0,0,0,0,-2.3021,-2.2981,-2.2942,-2.2803,-2.2757,-2.2577,-2.2569,-2.2545,-2.2477,-2.2472,-2.2321,-2.2297,-2.2221,-2.2074,-2.2042,-2.1998,-2.2034,-2.1696,-2.1692,-2.1688,-2.1738,-2.1736,-2.1734,0,0,0,0,0,-2.3035,-2.2961,-2.2941,-2.2907,-2.2708,-2.2575,-2.2548,-2.2469,-2.2475,-2.2431,-2.2342,-2.2302,-2.2025,-2.2061,-2.2024,-2.1976,-2.1699,-2.1693,-2.1688,-2.1739,-2.1736,-2.1734,0,0,0,0,0,0,-2.3091,-2.2942,-2.2917,-2.2798,-2.2701,-2.2562,-2.2505,-2.2468,-2.2361,-2.236,-2.2258,-2.2225,-2.2098,-2.2022,-2.2066,-2.1856,-2.1859,-2.1846,-2.191,-2.1906,-2.1904,-2.1924,-2.2023,0,0,0,0,0,-2.3091,-2.3003,-2.2874,-2.278,-2.2734,-2.2628,-2.2567,-2.2515,-2.2407,-2.2363,-2.2264,-2.2154,-2.2042,-2.197,-2.1859,-2.1727,-2.169,-2.1675,-2.1673,-2.1672,-2.1661,-2.1583,-2.1574,-2.1669,-2.1669,-2.1669,0,0,-2.3086,-2.2994,-2.2943,-2.279,-2.2708,-2.2613,-2.2594,-2.2493,-2.2419,-2.2345,-2.2215,-2.2138,-2.2008,-2.1875,-2.1811,-2.1808,-2.1627,-2.1665,-2.1665,-2.1655,-2.1576,-2.1568,-2.156,-2.1666,-2.1666,-2.1667,0,0,-2.3031,-2.2954,-2.2868,-2.2788,-2.2668,-2.2598,-2.2578,-2.2444,-2.2393,-2.2262,-2.2204,-2.211,-2.192,-2.183,-2.1759,-2.1668,-2.1626,-2.1634,-2.1621,-2.1546,-2.1538,-2.1531,-2.1496,-2.1486,-2.1624,-2.1624,-2.1624,0,-2.3038,-2.2901,-2.2826,-2.273,-2.2661,-2.2598,-2.2506,-2.2429,-2.2275,-2.2226,-2.2227,-2.1988,-2.1895,-2.174,-2.1718,-2.1663,-2.1631,-2.1651,-2.1547,-2.1539,-2.1531,-2.1496,-2.1484,-2.1626,-2.1626,-2.1626,-2.1625,0,-2.2915,-2.2819,-2.2762,-2.2626,-2.255,-2.2456,-2.236,-2.2291,-2.2245,-2.2173,-2.2037,-2.1925,-2.179,-2.1749,-2.1699,-2.1584,-2.1586,-2.1569,-2.1569,-2.1525,-2.1491,-2.1477,-2.1629,-2.1628,-2.1627,-2.1627,0,0,-2.2887,-2.2712,-2.2692,-2.2628,-2.2491,-2.2411,-2.2311,-2.2188,-2.2129,-2.2024,-2.1934,-2.1775,-2.1759,-2.1678,-2.1617,-2.1552,-2.1484,-2.154,-2.1536,-2.1533,-2.1346,-2.1361,-2.1347,-2.1456,-2.1453,-2.1451,-2.1357,0,-2.2812,-2.2642,-2.2571,-2.2429,-2.2337,-2.2275,-2.2187,-2.2089,-2.2018,-2.1923,-2.184,-2.173,-2.1717,-2.1668,-2.16,-2.1508,-2.1445,-2.1513,-2.1364,-2.136,-2.14,-2.133,-2.1344,-2.1261,-2.1343,-2.1341,-2.1339,0,-2.2703,-2.2607,-2.2459,-2.2333,-2.2291,-2.2215,-2.2095,-2.2007,-2.1892,-2.1844,-2.1756,-2.1699,-2.1583,-2.1593,-2.143,-2.1478,-2.1412,-2.1357,-2.1351,-2.1333,-2.1347,-2.1308,-2.1233,-2.122,-2.1318,-2.132,-2.1321,0,-2.2697,-2.2528,-2.2418,-2.2365,-2.2215,-2.2163,-2.2096,-2.1984,-2.1913,-2.1805,-2.1757,-2.1633,-2.1565,-2.1467,-2.1375,-2.1392,-2.1219,-2.1222,-2.1171,-2.1173,-2.1136,-2.114,-2.1049,-2.1097,-2.1097,-2.1097,-2.1097,0,-2.2621,-2.2532,-2.2414,-2.2346,-2.2242,-2.2158,-2.2055,-2.1982,-2.1883,-2.1793,-2.1728,-2.1644,-2.153,-2.1428,-2.1354,-2.1228,-2.1197,-2.1151,-2.1132,-2.1156,-2.1162,-2.1111,-2.1113,-2.1094,-2.1094,-2.1095,-2.1096,0,-2.2596,-2.2514,-2.2389,-2.226,-2.2224,-2.2154,-2.2038,-2.1965,-2.1892,-2.178,-2.1748,-2.1629,-2.1507,-2.1407,-2.1243,-2.1194,-2.1061,-2.104,-2.1104,-2.1093,-2.1048,-2.1053,-2.0919,-2.0896,-2.0962,-2.0961,-2.0961,0,-2.2554,-2.2485,-2.2349,-2.229,-2.2226,-2.2129,-2.2059,-2.1971,-2.1899,-2.1762,-2.1704,-2.1579,-2.1475,-2.128,-2.1174,-2.1048,-2.1022,-2.0984,-2.1002,-2.1028,-2.1019,-2.1024,-2.1015,-2.0981,-2.0981,-2.0981,-2.0981,0,-2.2485,-2.2449,-2.2355,-2.2246,-2.2166,-2.2073,-2.1978,-2.193,-2.1823,-2.1743,-2.1623,-2.1542,-2.1379,-2.1253,-2.1116,-2.1037,-2.0989,-2.0977,-2.0958,-2.0981,-2.1021,-2.0997,-2.1097,-2.098,-2.098,-2.098,-2.098,-2.098,-2.2449,-2.2385,-2.2281,-2.2176,-2.2098,-2.2011,-2.1937,-2.1856,-2.1757,-2.1623,-2.1574,-2.1449,-2.1329,-2.1143,-2.1064,-2.0958,-2.0953,-2.0926,-2.0918,-2.0913,-2.0916,-2.104,-2.0932,-2.0932,-2.0932,-2.0932,-2.0932,0,-2.2377,-2.2307,-2.2213,-2.2086,-2.2003,-2.1974,-2.1866,-2.1796,-2.169,-2.1587,-2.1488,-2.1345,-2.1223,-2.1109,-2.0978,-2.0915,-2.0889,-2.0884,-2.0886,-2.0868,-2.0929,-2.0958,-2.0907,-2.0907,-2.0907,-2.0907,-2.0907,-2.0907,-2.233,-2.222,-2.217,-2.2017,-2.1945,-2.1829,-2.177,-2.1686,-2.1605,-2.1453,-2.1354,-2.1283,-2.1173,-2.1035,-2.0918,-2.0887,-2.084,-2.084,-2.0803,-2.0861,-2.0864,-2.0868,-2.0895,-2.0832,-2.0831,-2.075,-2.075,-2.0749]}]]